Time,TemperatureF,DewpointF,PressureIn,WindDirection,WindDirectionDegrees,WindSpeedMPH,WindSpeedGustMPH,Humidity,HourlyPrecipIn,Conditions,Clouds,dailyrainin,SoftwareType,DateUTC
2013-03-31 00:03:00,42.0,-99.9,-100.00,ESE,104,1.0,12.0,46,0.00,,,-99.99,,2013-03-31 04:03:00,
2013-03-31 00:13:00,43.0,25.0,-100.00,ESE,110,1.0,12.0,46,0.00,,,-99.99,,2013-03-31 04:13:00,
2013-03-31 00:23:00,43.0,23.0,-100.00,East,90,1.0,12.0,45,0.00,,,-99.99,,2013-03-31 04:23:00,
2013-03-31 00:33:00,42.0,25.0,-100.00,East,101,2.0,12.0,47,0.00,,,-99.99,,2013-03-31 04:33:00,
2013-03-31 00:42:00,43.0,25.0,-100.00,East,80,2.0,12.0,46,0.00,,,-99.99,,2013-03-31 04:42:00,
2013-03-31 00:52:00,44.0,25.0,-100.00,ENE,77,3.0,12.0,46,0.00,,,-99.99,,2013-03-31 04:52:00,
2013-03-31 01:02:00,43.0,25.0,-100.00,ENE,72,3.0,12.0,45,0.00,,,-99.99,,2013-03-31 05:02:00,
2013-03-31 01:13:00,43.0,23.0,-100.00,ESE,104,3.0,12.0,44,0.00,,,-99.99,,2013-03-31 05:13:00,
2013-03-31 01:22:00,44.0,25.0,-100.00,East,87,2.0,12.0,44,0.00,,,-99.99,,2013-03-31 05:22:00,
2013-03-31 01:32:00,44.0,23.0,-100.00,East,84,2.0,12.0,42,0.00,,,-99.99,,2013-03-31 05:32:00,
2013-03-31 01:42:00,44.0,23.0,-100.00,East,91,2.0,12.0,42,0.00,,,-99.99,,2013-03-31 05:42:00,
2013-03-31 01:53:00,45.0,23.0,-100.00,East,91,2.0,12.0,41,0.00,,,-99.99,,2013-03-31 05:53:00,
2013-03-31 02:02:00,45.0,23.0,-100.00,ESE,105,3.0,12.0,41,0.00,,,-99.99,,2013-03-31 06:02:00,
2013-03-31 02:12:00,46.0,25.0,-100.00,ESE,103,3.0,12.0,41,0.00,,,-99.99,,2013-03-31 06:12:00,
2013-03-31 02:23:00,44.0,23.0,-100.00,East,96,2.0,12.0,41,0.00,,,-99.99,,2013-03-31 06:23:00,
2013-03-31 02:33:00,44.0,23.0,-100.00,ESE,107,2.0,2.0,41,0.00,,,-99.99,,2013-03-31 06:33:00,
2013-03-31 02:42:00,44.0,21.0,-100.00,East,101,3.0,4.0,40,0.00,,,-99.99,,2013-03-31 06:42:00,
2013-03-31 02:52:00,46.0,25.0,-100.00,ENE,69,3.0,4.0,41,0.00,,,-99.99,,2013-03-31 06:52:00,
2013-03-31 03:02:00,46.0,25.0,-100.00,ESE,110,2.0,4.0,41,0.00,,,-99.99,,2013-03-31 07:02:00,
2013-03-31 03:12:00,44.0,23.0,-100.00,East,87,3.0,4.0,40,0.00,,,-99.99,,2013-03-31 07:12:00,
2013-03-31 03:22:00,44.0,23.0,-100.00,East,90,2.0,4.0,41,0.00,,,-99.99,,2013-03-31 07:22:00,
2013-03-31 03:33:00,44.0,23.0,-100.00,East,91,4.0,4.0,41,0.00,,,-99.99,,2013-03-31 07:33:00,
2013-03-31 03:43:00,46.0,25.0,-100.00,East,84,4.0,4.0,42,0.00,,,-99.99,,2013-03-31 07:43:00,
2013-03-31 03:52:00,46.0,25.0,-100.00,East,86,4.0,4.0,42,0.00,,,-99.99,,2013-03-31 07:52:00,
2013-03-31 04:02:00,46.0,25.0,-100.00,East,86,4.0,4.0,42,0.00,,,-99.99,,2013-03-31 08:02:00,
2013-03-31 04:12:00,46.0,25.0,-100.00,ESE,110,4.0,4.0,41,0.00,,,-99.99,,2013-03-31 08:12:00,
2013-03-31 04:22:00,45.0,23.0,-100.00,East,98,4.0,4.0,40,0.00,,,-99.99,,2013-03-31 08:22:00,
2013-03-31 04:32:00,44.0,23.0,-100.00,East,93,3.0,4.0,40,0.00,,,-99.99,,2013-03-31 08:32:00,
2013-03-31 04:42:00,44.0,23.0,-100.00,East,94,4.0,4.0,40,0.00,,,-99.99,,2013-03-31 08:42:00,
2013-03-31 04:52:00,44.0,23.0,-100.00,East,96,5.0,6.0,41,0.00,,,-99.99,,2013-03-31 08:52:00,
2013-03-31 05:02:00,44.0,23.0,-100.00,East,87,5.0,6.0,41,0.00,,,-99.99,,2013-03-31 09:02:00,
2013-03-31 05:12:00,46.0,25.0,-100.00,East,98,4.0,6.0,42,0.00,,,-99.99,,2013-03-31 09:12:00,
2013-03-31 05:22:00,45.0,23.0,-100.00,East,91,5.0,6.0,41,0.00,,,-99.99,,2013-03-31 09:22:00,
2013-03-31 05:33:00,44.0,23.0,-100.00,East,91,6.0,6.0,41,0.00,,,-99.99,,2013-03-31 09:33:00,
2013-03-31 05:43:00,44.0,23.0,-100.00,East,84,4.0,6.0,40,0.00,,,-99.99,,2013-03-31 09:43:00,
2013-03-31 05:53:00,44.0,23.0,-100.00,East,87,4.0,6.0,41,0.00,,,-99.99,,2013-03-31 09:53:00,
2013-03-31 06:03:00,45.0,25.0,-100.00,East,96,3.0,6.0,42,0.00,,,-99.99,,2013-03-31 10:03:00,
2013-03-31 06:13:00,44.0,23.0,-100.00,ESE,111,3.0,6.0,41,0.00,,,-99.99,,2013-03-31 10:13:00,
2013-03-31 06:24:00,43.0,23.0,-100.00,East,98,4.0,6.0,42,0.00,,,-99.99,,2013-03-31 10:24:00,
2013-03-31 06:33:00,45.0,25.0,-100.00,East,98,2.0,6.0,42,0.00,,,-99.99,,2013-03-31 10:33:00,
2013-03-31 06:42:00,44.0,23.0,-100.00,ESE,105,4.0,6.0,42,0.00,,,-99.99,,2013-03-31 10:42:00,
2013-03-31 06:53:00,43.0,23.0,-100.00,East,98,4.0,6.0,42,0.00,,,-99.99,,2013-03-31 10:53:00,
2013-03-31 07:03:00,43.0,23.0,-100.00,East,97,4.0,6.0,42,0.00,,,-99.99,,2013-03-31 11:03:00,
2013-03-31 07:12:00,43.0,23.0,-100.00,East,97,4.0,6.0,42,0.00,,,-99.99,,2013-03-31 11:12:00,
2013-03-31 07:23:00,43.0,23.0,-100.00,East,90,3.0,6.0,44,0.00,,,-99.99,,2013-03-31 11:23:00,
2013-03-31 07:33:00,43.0,23.0,-100.00,East,91,2.0,6.0,44,0.00,,,-99.99,,2013-03-31 11:33:00,
2013-03-31 07:42:00,43.0,23.0,-100.00,East,86,4.0,6.0,44,0.00,,,-99.99,,2013-03-31 11:42:00,
2013-03-31 07:52:00,43.0,23.0,-100.00,ESE,103,4.0,6.0,44,0.00,,,-99.99,,2013-03-31 11:52:00,
2013-03-31 08:03:00,43.0,23.0,-100.00,East,79,4.0,6.0,44,0.00,,,-99.99,,2013-03-31 12:03:00,
2013-03-31 08:12:00,44.0,25.0,-100.00,East,98,4.0,6.0,44,0.00,,,-99.99,,2013-03-31 12:12:00,
2013-03-31 08:22:00,43.0,23.0,-100.00,East,93,6.0,8.0,44,0.00,,,-99.99,,2013-03-31 12:22:00,
2013-03-31 08:33:00,45.0,27.0,-100.00,ESE,104,6.0,8.0,45,0.00,,,-99.99,,2013-03-31 12:33:00,
2013-03-31 08:42:00,43.0,25.0,-100.00,East,100,4.0,8.0,45,0.00,,,-99.99,,2013-03-31 12:42:00,
2013-03-31 08:52:00,44.0,25.0,-100.00,East,90,4.0,8.0,44,0.00,,,-99.99,,2013-03-31 12:52:00,
2013-03-31 09:02:00,44.0,25.0,-100.00,East,97,4.0,8.0,44,0.00,,,-99.99,,2013-03-31 13:02:00,
2013-03-31 09:12:00,44.0,25.0,-100.00,ESE,114,4.0,8.0,45,0.00,,,-99.99,,2013-03-31 13:12:00,
2013-03-31 09:23:00,44.0,25.0,-100.00,SE,124,4.0,8.0,44,0.00,,,-99.99,,2013-03-31 13:23:00,
2013-03-31 09:32:00,46.0,25.0,-100.00,ESE,105,5.0,8.0,42,0.00,,,-99.99,,2013-03-31 13:32:00,
2013-03-31 09:42:00,45.0,25.0,-100.00,SE,132,6.0,8.0,42,0.00,,,-99.99,,2013-03-31 13:42:00,
2013-03-31 09:52:00,46.0,25.0,-100.00,East,96,6.0,8.0,42,0.00,,,-99.99,,2013-03-31 13:52:00,
2013-03-31 10:03:00,47.0,27.0,-100.00,SE,134,6.0,8.0,42,0.00,,,-99.99,,2013-03-31 14:03:00,
2013-03-31 10:12:00,47.0,25.0,-100.00,East,100,5.0,8.0,41,0.00,,,-99.99,,2013-03-31 14:12:00,
2013-03-31 10:22:00,47.0,27.0,-100.00,ESE,114,4.0,8.0,42,0.00,,,-99.99,,2013-03-31 14:22:00,
2013-03-31 10:33:00,48.0,27.0,-100.00,East,101,6.0,8.0,41,0.00,,,-99.99,,2013-03-31 14:33:00,
2013-03-31 10:43:00,49.0,27.0,-100.00,SE,136,6.0,8.0,41,0.00,,,-99.99,,2013-03-31 14:43:00,
2013-03-31 10:52:00,49.0,27.0,-100.00,East,100,7.0,8.0,40,0.00,,,-99.99,,2013-03-31 14:52:00,
2013-03-31 11:03:00,49.0,27.0,-100.00,ESE,114,6.0,8.0,40,0.00,,,-99.99,,2013-03-31 15:03:00,
2013-03-31 11:13:00,50.0,27.0,-100.00,ESE,114,9.0,12.0,38,0.00,,,-99.99,,2013-03-31 15:13:00,
2013-03-31 11:23:00,51.0,27.0,-100.00,ESE,104,9.0,12.0,38,0.00,,,-99.99,,2013-03-31 15:23:00,
2013-03-31 11:34:00,51.0,28.0,-100.00,SSE,163,9.0,15.0,40,0.00,,,-99.99,,2013-03-31 15:34:00,
2013-03-31 11:43:00,52.0,28.0,-100.00,SSE,149,11.0,15.0,40,0.00,,,-99.99,,2013-03-31 15:43:00,
2013-03-31 11:53:00,51.0,28.0,-100.00,SSE,155,9.0,15.0,40,0.00,,,-99.99,,2013-03-31 15:53:00,
2013-03-31 12:03:00,51.0,27.0,-100.00,SSE,148,11.0,15.0,38,0.00,,,-99.99,,2013-03-31 16:03:00,
2013-03-31 12:13:00,52.0,30.0,-100.00,SSE,160,11.0,15.0,40,0.00,,,-99.99,,2013-03-31 16:13:00,
2013-03-31 12:23:00,53.0,30.0,-100.00,SE,139,11.0,15.0,41,0.00,,,-99.99,,2013-03-31 16:23:00,
2013-03-31 12:33:00,52.0,30.0,-100.00,SE,128,11.0,15.0,42,0.00,,,-99.99,,2013-03-31 16:33:00,
2013-03-31 12:43:00,51.0,30.0,-100.00,SSE,149,10.0,15.0,44,0.00,,,-99.99,,2013-03-31 16:43:00,
2013-03-31 12:53:00,52.0,32.0,-100.00,SSE,153,7.0,15.0,45,0.00,,,-99.99,,2013-03-31 16:53:00,
2013-03-31 13:03:00,53.0,32.0,-100.00,ESE,121,8.0,15.0,45,0.00,,,-99.99,,2013-03-31 17:03:00,
2013-03-31 13:13:00,53.0,32.0,-100.00,SSE,151,8.0,15.0,46,0.00,,,-99.99,,2013-03-31 17:13:00,
2013-03-31 13:23:00,53.0,34.0,-100.00,SE,132,9.0,15.0,49,0.00,,,-99.99,,2013-03-31 17:23:00,
2013-03-31 13:32:00,53.0,34.0,-100.00,ESE,120,9.0,15.0,50,0.00,,,-99.99,,2013-03-31 17:32:00,
2013-03-31 13:43:00,53.0,36.0,-100.00,SE,135,9.0,15.0,53,0.00,,,-99.99,,2013-03-31 17:43:00,
2013-03-31 13:52:00,53.0,37.0,-100.00,SSE,156,9.0,15.0,56,0.00,,,-99.99,,2013-03-31 17:52:00,
2013-03-31 14:03:00,54.0,39.0,-100.00,SE,146,12.0,19.0,60,0.00,,,-99.99,,2013-03-31 18:03:00,
2013-03-31 14:13:00,54.0,39.0,-100.00,SE,145,11.0,19.0,60,0.00,,,-99.99,,2013-03-31 18:13:00,
2013-03-31 14:22:00,55.0,41.0,-100.00,SE,146,12.0,19.0,60,0.00,,,-99.99,,2013-03-31 18:22:00,
2013-03-31 14:33:00,55.0,41.0,-100.00,SE,135,10.0,19.0,62,0.00,,,-99.99,,2013-03-31 18:33:00,
2013-03-31 14:42:00,55.0,43.0,-100.00,ESE,115,9.0,19.0,64,0.00,,,-99.99,,2013-03-31 18:42:00,
2013-03-31 14:52:00,55.0,41.0,-100.00,SE,127,10.0,19.0,64,0.00,,,-99.99,,2013-03-31 18:52:00,
2013-03-31 15:03:00,54.0,41.0,-100.00,SE,139,6.0,19.0,64,0.00,,,-99.99,,2013-03-31 19:03:00,
2013-03-31 15:12:00,50.0,37.0,-100.00,ESE,117,8.0,19.0,66,0.00,,,-99.99,,2013-03-31 19:12:00,
2013-03-31 15:22:00,53.0,41.0,-100.00,SE,141,7.0,19.0,67,0.00,,,-99.99,,2013-03-31 19:22:00,
2013-03-31 15:33:00,53.0,41.0,-100.00,SE,135,8.0,19.0,68,0.00,,,-99.99,,2013-03-31 19:33:00,
2013-03-31 15:43:00,53.0,41.0,-100.00,ESE,117,7.0,19.0,67,0.00,,,-99.99,,2013-03-31 19:43:00,
2013-03-31 15:53:00,53.0,41.0,-100.00,SE,141,9.0,19.0,67,0.00,,,-99.99,,2013-03-31 19:53:00,
2013-03-31 16:03:00,52.0,41.0,-100.00,SE,127,9.0,19.0,67,0.00,,,-99.99,,2013-03-31 20:03:00,
2013-03-31 16:13:00,53.0,41.0,-100.00,ESE,105,8.0,19.0,68,0.00,,,-99.99,,2013-03-31 20:13:00,
2013-03-31 16:23:00,53.0,43.0,-100.00,SE,134,6.0,19.0,71,0.00,,,-99.99,,2013-03-31 20:23:00,
2013-03-31 16:34:00,50.0,39.0,-100.00,SE,145,6.0,19.0,71,1.14,,,-99.99,,2013-03-31 20:34:00,
2013-03-31 16:43:00,52.0,43.0,-100.00,South,169,6.0,19.0,73,0.00,,,-99.99,,2013-03-31 20:43:00,
2013-03-31 16:52:00,51.0,43.0,-100.00,SE,144,5.0,19.0,75,0.00,,,-99.99,,2013-03-31 20:52:00,
2013-03-31 17:03:00,49.0,41.0,-100.00,SE,131,5.0,19.0,75,1.14,,,-99.99,,2013-03-31 21:03:00,
2013-03-31 17:13:00,49.0,41.0,-100.00,SE,127,4.0,19.0,77,0.00,,,-99.99,,2013-03-31 21:13:00,
2013-03-31 17:22:00,49.0,43.0,-100.00,SE,139,4.0,19.0,80,0.00,,,-99.99,,2013-03-31 21:22:00,
2013-03-31 17:34:00,51.0,45.0,-100.00,ESE,122,2.0,19.0,81,0.00,,,-99.99,,2013-03-31 21:34:00,
2013-03-31 17:43:00,51.0,45.0,-100.00,SE,129,4.0,19.0,82,0.00,,,-99.99,,2013-03-31 21:43:00,
2013-03-31 17:53:00,51.0,45.0,-100.00,SE,146,3.0,19.0,84,0.00,,,-99.99,,2013-03-31 21:53:00,
2013-03-31 18:04:00,51.0,45.0,-100.00,SE,141,2.0,19.0,82,0.00,,,-99.99,,2013-03-31 22:04:00,
2013-03-31 18:13:00,49.0,43.0,-100.00,SE,139,2.0,19.0,82,2.83,,,-99.99,,2013-03-31 22:13:00,
2013-03-31 18:24:00,48.0,41.0,-100.00,WSW,248,4.0,19.0,82,0.00,,,-99.99,,2013-03-31 22:24:00,
2013-03-31 18:33:00,50.0,45.0,-100.00,SSW,200,6.0,19.0,84,0.00,,,-99.99,,2013-03-31 22:33:00,
2013-03-31 18:43:00,50.0,45.0,-100.00,SSW,192,8.0,19.0,85,0.00,,,-99.99,,2013-03-31 22:43:00,
2013-03-31 18:53:00,50.0,45.0,-100.00,SSW,193,9.0,19.0,84,0.00,,,-99.99,,2013-03-31 22:53:00,
2013-03-31 19:03:00,49.0,43.0,-100.00,South,189,9.0,19.0,82,0.00,,,-99.99,,2013-03-31 23:03:00,
2013-03-31 19:13:00,51.0,45.0,-100.00,South,184,7.0,19.0,84,0.00,,,-99.99,,2013-03-31 23:13:00,
2013-03-31 19:22:00,49.0,43.0,-100.00,SSE,163,7.0,19.0,81,0.00,,,-99.99,,2013-03-31 23:22:00,
2013-03-31 19:33:00,49.0,43.0,-100.00,South,182,6.0,19.0,80,0.00,,,-99.99,,2013-03-31 23:33:00,
2013-03-31 19:43:00,51.0,45.0,-100.00,South,172,6.0,19.0,80,0.00,,,-99.99,,2013-03-31 23:43:00,
2013-03-31 19:53:00,51.0,45.0,-100.00,SE,125,6.0,19.0,80,0.00,,,-99.99,,2013-03-31 23:53:00,
2013-03-31 20:02:00,51.0,45.0,-100.00,SSE,155,6.0,19.0,80,0.00,,,-99.99,,2013-04-01 00:02:00,
2013-03-31 20:13:00,50.0,43.0,-100.00,South,175,6.0,19.0,80,0.00,,,-99.99,,2013-04-01 00:13:00,
2013-03-31 20:22:00,50.0,43.0,-100.00,SSE,153,5.0,19.0,80,0.00,,,-99.99,,2013-04-01 00:22:00,
2013-03-31 20:32:00,49.0,41.0,-100.00,SE,144,3.0,19.0,78,0.00,,,-99.99,,2013-04-01 00:32:00,
2013-03-31 20:43:00,50.0,43.0,-100.00,SE,146,2.0,19.0,78,0.00,,,-99.99,,2013-04-01 00:43:00,
2013-03-31 20:52:00,49.0,41.0,-100.00,SE,125,2.0,19.0,78,0.00,,,-99.99,,2013-04-01 00:52:00,
2013-03-31 21:03:00,49.0,43.0,-100.00,ESE,122,3.0,19.0,80,0.00,,,-99.99,,2013-04-01 01:03:00,
2013-03-31 21:13:00,49.0,43.0,-100.00,East,91,2.0,19.0,81,0.00,,,-99.99,,2013-04-01 01:13:00,
2013-03-31 21:23:00,49.0,43.0,-100.00,SE,136,4.0,19.0,82,0.00,,,-99.99,,2013-04-01 01:23:00,
2013-03-31 21:33:00,49.0,43.0,-100.00,ESE,110,3.0,19.0,82,0.00,,,-99.99,,2013-04-01 01:33:00,
2013-03-31 21:42:00,48.0,43.0,-100.00,SE,135,4.0,19.0,84,0.00,,,-99.99,,2013-04-01 01:42:00,
2013-03-31 21:52:00,49.0,43.0,-100.00,SSE,148,5.0,19.0,81,0.00,,,-99.99,,2013-04-01 01:52:00,
2013-03-31 22:03:00,49.0,43.0,-100.00,SE,138,5.0,19.0,81,0.00,,,-99.99,,2013-04-01 02:03:00,
2013-03-31 22:13:00,50.0,43.0,-100.00,SSE,153,6.0,19.0,80,0.00,,,-99.99,,2013-04-01 02:13:00,
2013-03-31 22:23:00,48.0,39.0,-100.00,SE,146,7.0,19.0,77,0.00,,,-99.99,,2013-04-01 02:23:00,
2013-03-31 22:33:00,50.0,41.0,-100.00,SE,135,7.0,19.0,76,0.00,,,-99.99,,2013-04-01 02:33:00,
2013-03-31 22:42:00,47.0,39.0,-100.00,SSE,152,7.0,19.0,75,0.00,,,-99.99,,2013-04-01 02:42:00,
2013-03-31 22:52:00,50.0,41.0,-100.00,SSE,160,8.0,19.0,76,0.00,,,-99.99,,2013-04-01 02:52:00,
2013-03-31 23:03:00,48.0,39.0,-100.00,SSE,149,9.0,19.0,73,0.00,,,-99.99,,2013-04-01 03:03:00,
2013-03-31 23:12:00,50.0,41.0,-100.00,SE,129,8.0,19.0,75,0.00,,,-99.99,,2013-04-01 03:12:00,
2013-03-31 23:23:00,48.0,39.0,-100.00,SE,141,6.0,19.0,73,0.00,,,-99.99,,2013-04-01 03:23:00,
2013-03-31 23:34:00,50.0,41.0,-100.00,SE,127,6.0,19.0,73,0.00,,,-99.99,,2013-04-01 03:34:00,
2013-03-31 23:43:00,49.0,39.0,-100.00,SE,145,7.0,19.0,72,0.00,,,-99.99,,2013-04-01 03:43:00,
2013-03-31 23:53:00,49.0,39.0,-100.00,SE,128,6.0,19.0,71,0.00,,,-99.99,,2013-04-01 03:53:00,